User: anonymous   Login
Location: Voyageurs National Park
(48.5020°N, 92.9292°W)
Time: 19:11:30
(UTC-06:00)
Language:

Terra - Orbit

View from above orbital plane
View from above orbital plane
View from above satellite
View from above satellite

Ground track
Ground track

The orbit data is extracted from the following two-line orbital elements,

1 25994U 99068A   17023.31207480 -.00001130  00000-0 -24076-3 0  9998
2 25994  98.1993 100.4011 0000737  94.6377 265.4916 14.57107215909576
Epoch (UTC): 23 January 2017 07:29:23
Eccentricity: 0.0000737
inclination: 98.1993°
perigee height: 702 km
apogee height: 703 km
right ascension of ascending node: 100.4011°
argument of perigee: 94.6377°
revolutions per day: 14.57107215
mean anomaly at epoch: 265.4916°
orbit number at epoch: 90957

The dashed part of the orbit path shows where the satellite is in the earth's shadow,  

DLR